Volver al catálogo

PLEIADES-ORPHEUS

ActivoCienciaVLEO
NORAD 62387·PAYLOAD·🇺🇸 United States
Este nombre de satélite aún no ha sido confirmado por fuentes oficiales.

Lanzado Dec 21, 2024 desde Vandenberg Space Force Base

Loading…

Próximos Pases (próximas 24 horas)

TLE

ActualizadoSource: Space-Track

Época: Sep 14, 2026, 13:58 UTC

1 62387U 24247L   26257.58211018  .00062750  00000-0  68821-3 0  9991
2 62387  44.9863  97.9685 0008278 221.0636 138.9638 15.62399217 97426

Sigue PLEIADES-ORPHEUS en tiempo real con AllMySat

Download on the App Store